Powrót do katalogu

STARLINK-2753

AktywnyŁącznośćVLEO
NORAD 48696·PAYLOAD·🇺🇸 United States

Wystrzelony May 26, 2021 z Cape Canaveral Space Force Station

Loading…

Następne Przeloty (najbliższe 24 godziny)

TLE

ŚwieżeSource: CelesTrak SupGP

Epoka: Sep 14, 2026, 21:31 UTC

1 48696C 21044BL  26257.89701389  .00052454  00000+0  15682-2 0  2571
2 48696  53.1570 287.7749 0003954  39.9942 323.7395 15.33983439    18

Śledź STARLINK-2753 w czasie rzeczywistym z AllMySat

Download on the App Store